Flag for Denmark

Past Weather in Copenhagen, Denmark — Yesterday and Last 2 Weeks

Now
63 °F

Mild.


Feels Like: 63 °F
Forecast: 63 / 54 °F
Wind: 9 mph from South

Location: Koebenhavn-Kastrup Airport
Current Time: Sep 29, 2020 at 5:11:33 pm
Latest Report: Sep 29, 2020 at 4:20 pm
Visibility: N/A
Pressure30.01 "Hg
Humidity: 68%
Dew Point: 52 °F
Location of CopenhagenLocation

Past Weather in Copenhagen — Graph

°F

Copenhagen Temperature Yesterday

Maximum temperature yesterday: 61 °F (at 12:20 am)
Minimum temperature yesterday: 57 °F (at 2:50 pm)
Average temperature yesterday: 59 °F

High & Low Weather Summary for the Past Weeks

 TemperatureHumidityPressure
High75 °F (Sep 15, 12:50 pm)100% (Sep 15, 1:50 am)30.45 "Hg (Sep 15, 1:50 am)
Low39 °F (Sep 18, 6:20 am)30% (Sep 18, 5:20 pm)29.30 "Hg (Sep 25, 8:50 pm)
Average59 °F81%29.93 "Hg
* Reported Sep 14 3:20 pm — Sep 29 3:20 pm, Copenhagen. Weather by CustomWeather, © 2020

Note: Actual official high and low records may vary slightly from our data, if they occured in-between our weather recording intervals... More about our weather records

Copenhagen Weather History for the Previous 24 Hours

Scroll right to see more
 ConditionsComfort  
Time TempWeatherWind HumidityBarometerVisibility
3:20 pm
Tue, Sep 29
63 °FPassing clouds.10 mph68%30.04 "HgN/A
2:50 pm63 °FPassing clouds.10 mph73%30.04 "HgN/A
2:20 pm64 °FMild.12 mph68%30.04 "HgN/A
1:50 pm63 °FMild.10 mph68%30.04 "HgN/A
1:20 pm63 °FMild.10 mph68%30.04 "HgN/A
12:50 pm64 °FMild.12 mph64%30.04 "HgN/A
12:20 pm63 °FMild.12 mph73%30.04 "HgN/A
11:50 am63 °FMild.12 mph73%30.04 "HgN/A
11:20 am63 °FPassing clouds.13 mph73%30.04 "HgN/A
10:50 am61 °FPassing clouds.12 mph77%30.04 "HgN/A
10:20 am61 °FPassing clouds.10 mph77%30.01 "HgN/A
9:50 am61 °FScattered clouds.10 mph77%30.01 "HgN/A
8:50 am59 °FCool.8 mph82%30.01 "HgN/A
8:20 am57 °FCool.8 mph88%30.01 "HgN/A
7:50 am57 °FCool.8 mph88%30.01 "HgN/A
7:20 am55 °FCool.7 mph88%29.98 "HgN/A
6:50 am55 °FCool.7 mph88%29.98 "HgN/A
6:20 am55 °FCool.6 mph88%29.98 "HgN/A
5:50 am57 °FCool.6 mph82%29.98 "HgN/A
5:20 am55 °FCool.7 mph88%29.98 "HgN/A
4:50 am55 °FPassing clouds.7 mph88%29.98 "HgN/A
4:20 am57 °FPassing clouds.8 mph77%29.98 "HgN/A
3:50 am57 °FPassing clouds.7 mph77%29.98 "HgN/A
3:20 am59 °FPassing clouds.7 mph72%29.98 "HgN/A
2:50 am59 °FPassing clouds.8 mph72%29.98 "HgN/A
2:20 am59 °FPassing clouds.9 mph72%29.98 "HgN/A
1:50 am59 °FPassing clouds.8 mph72%29.98 "HgN/A
1:20 am59 °FPassing clouds.8 mph72%29.98 "HgN/A
12:50 am59 °FPassing clouds.8 mph68%29.98 "HgN/A
12:20 am59 °FPassing clouds.9 mph72%29.98 "HgN/A
11:50 pm
Mon, Sep 28
59 °FPassing clouds.8 mph72%29.98 "HgN/A
11:20 pm57 °FPassing clouds.7 mph77%29.98 "HgN/A
10:50 pm59 °FPassing clouds.9 mph77%29.98 "HgN/A
10:20 pm57 °FOvercast.9 mph82%29.95 "HgN/A
9:50 pm57 °FPassing clouds.9 mph88%29.95 "HgN/A
9:20 pm57 °FPassing clouds.12 mph82%29.95 "HgN/A
8:50 pm57 °FPassing clouds.8 mph77%29.95 "HgN/A
8:20 pm57 °FPassing clouds.8 mph77%29.95 "HgN/A
7:50 pm57 °FPassing clouds.7 mph77%29.92 "HgN/A
7:20 pm57 °FPassing clouds.8 mph77%29.92 "HgN/A
6:50 pm57 °FPartly sunny.7 mph77%29.92 "HgN/A
6:20 pm57 °FPassing clouds.6 mph77%29.92 "HgN/A
5:50 pm59 °FPartly sunny.7 mph72%29.89 "HgN/A
5:20 pm57 °FPartly sunny.8 mph77%29.89 "HgN/A
Weather by CustomWeather, © 2020

See weather overview